Weather History for KGJT - July, 2013

Change the Weather History Date:

Sunday, July 28, 2013

  Actual Average Record
Temperature  
Mean Temperature 72 °F 78 °F  
Max Temperature 82 °F 93 °F 104 °F (1995)
Min Temperature 61 °F 64 °F 52 °F (2004)
Degree Days  
Heating Degree Days 0 0  
Month to date heating degree days 0 0  
Since 1 June heating degree days 5 22  
Since 1 July heating degree days 0 0  
Cooling Degree Days 7 13  
Month to date cooling degree days 424 373  
Year to date cooling degree days 793 655  
Since 1 June cooling degree days 738 604  
Growing Degree Days 22 (Base 50)    
Moisture  
Dew Point 60 °F    
Average Humidity 71    
Maximum Humidity 100    
Minimum Humidity 42    
Precipitation  
Precipitation 0.38 in 0.02 in 0.38 in (2013)
Month to date precipitation 1.16 0.53  
Year to date precipitation 4.58 4.82  
Snow  
Snow 0.00 in 0.00 in 0.00 in (2013)
Month to date snowfall 0.0 0.0  
Since 1 June snowfall 0.0 0.0  
Since 1 July snowfall 0.0 0.0  
Snow Depth 0.00 in    
Sea Level Pressure  
Sea Level Pressure 29.87 in    
Wind  
Wind Speed 9 mph (SE)    
Max Wind Speed 23 mph    
Max Gust Speed 26 mph    
Visibility 9 miles    
Events Rain , Thunderstorm    
T = Trace of Precipitation, MM = Missing Value Source: NWS Daily Summary

Daily Weather History Graph

Daily Weather History Graph

Search for Another Location

Airport or City:

Trip Planner

Search our weather history database for the weather conditions in past years. The results will help you decide how hot, cold, wet, or windy it might be!

Date:

Astronomy

Jul. 28, 2013 Rise Set
Actual Time 6:11 AM MDT 8:29 PM MDT
Civil Twilight 5:41 AM MDT 8:59 PM MDT
Nautical Twilight 5:04 AM MDT 9:36 PM MDT
Astronomical Twilight 4:23 AM MDT 10:17 PM MDT
Moon 11:56 PM MDT (7/28) 12:53 PM MDT (7/28)
Length of Visible Light 15h 18m
Length of Day
14h 18m
Waning Gibbous, 60% of the Moon is Illuminated
Jul 28
Waning Gibbous
Jul 29
Last Quarter
Aug 6
New
Aug 14
First Quarter
Aug 20
Full

Hourly Weather History & Observations

Time (MDT) Temp. Heat Index Dew Point Humidity Pressure Visibility Wind Dir Wind Speed Gust Speed Precip Events Conditions
12:53 AM 63.0 °F - 62.1 °F 97% 29.86 in 7.0 mi ESE 6.9 mph - 0.03 in Rain Rain
1:53 AM 63.0 °F - 62.1 °F 97% 29.83 in 10.0 mi East 8.1 mph - 0.02 in   Overcast
2:25 AM 62.6 °F - 62.6 °F 100% 30.04 in 2.5 mi ESE 12.7 mph - 0.11 in Rain Heavy Rain
2:35 AM 62.6 °F - 62.6 °F 100% 30.04 in 3.0 mi ESE 12.7 mph - 0.14 in Rain Rain
2:44 AM 62.6 °F - 62.6 °F 100% 30.04 in 2.5 mi SE 15.0 mph - 0.22 in Rain Heavy Rain
2:53 AM 62.1 °F - 62.1 °F 100% 29.84 in 4.0 mi SE 17.3 mph - 0.26 in Rain Rain
3:53 AM 62.1 °F - 62.1 °F 100% 29.85 in 10.0 mi ESE 10.4 mph - 0.02 in Rain Light Rain
4:53 AM 62.1 °F - 61.0 °F 96% 29.84 in 10.0 mi ESE 12.7 mph - 0.03 in   Overcast
5:53 AM 62.1 °F - 61.0 °F 96% 29.83 in 10.0 mi ESE 6.9 mph - N/A   Overcast
6:53 AM 63.0 °F - 61.0 °F 93% 29.84 in 10.0 mi ESE 9.2 mph - N/A   Overcast
7:53 AM 64.0 °F - 61.0 °F 90% 29.86 in 10.0 mi ESE 5.8 mph - N/A   Overcast
8:53 AM 66.9 °F - 60.1 °F 79% 29.86 in 10.0 mi ESE 9.2 mph - N/A   Overcast
9:53 AM 64.9 °F - 62.1 °F 90% 29.88 in 9.0 mi ESE 5.8 mph - 0.01 in Rain Light Rain
10:43 AM 66.2 °F - 62.6 °F 88% 30.06 in 10.0 mi South 5.8 mph - 0.01 in   Mostly Cloudy
10:53 AM 69.1 °F - 62.1 °F 78% 29.88 in 10.0 mi ESE 4.6 mph - 0.01 in   Mostly Cloudy
11:20 AM 69.8 °F - 62.6 °F 78% 30.05 in 10.0 mi Variable 3.5 mph - N/A   Partly Cloudy
11:32 AM 69.8 °F - 62.6 °F 78% 30.05 in 10.0 mi Calm Calm - N/A   Mostly Cloudy
11:43 AM 71.6 °F - 62.6 °F 73% 30.05 in 10.0 mi SSE 8.1 mph - N/A   Scattered Clouds
11:53 AM 71.1 °F - 60.1 °F 68% 29.88 in 10.0 mi Calm Calm - N/A   Scattered Clouds
12:53 PM 75.0 °F - 60.1 °F 60% 29.85 in 10.0 mi Calm Calm - N/A   Scattered Clouds
1:53 PM 78.1 °F - 60.1 °F 54% 29.81 in 10.0 mi Variable 6.9 mph - N/A   Scattered Clouds
2:53 PM 79.0 °F - 60.1 °F 52% 29.79 in 10.0 mi SE 6.9 mph - N/A   Scattered Clouds
3:53 PM 80.1 °F 80.1 °F 55.0 °F 42% 29.77 in 10.0 mi SSW 4.6 mph - N/A   Scattered Clouds
4:53 PM 81.0 °F 81.1 °F 57.9 °F 45% 29.74 in 10.0 mi SSE 16.1 mph - N/A   Scattered Clouds
5:53 PM 80.1 °F 80.7 °F 59.0 °F 48% 29.75 in 10.0 mi SE 18.4 mph 25.3 mph N/A   Scattered Clouds
6:53 PM 77.0 °F - 57.0 °F 50% 29.79 in 10.0 mi East 17.3 mph - N/A   Mostly Cloudy
7:53 PM 73.9 °F - 57.0 °F 55% 29.78 in 10.0 mi SE 15.0 mph - N/A   Mostly Cloudy
8:53 PM 73.0 °F - 55.0 °F 53% 29.81 in 10.0 mi East 5.8 mph - N/A   Scattered Clouds
9:53 PM 72.0 °F - 52.0 °F 49% 29.82 in 10.0 mi ENE 5.8 mph - N/A   Clear
10:53 PM 70.0 °F - 55.0 °F 59% 29.82 in 10.0 mi ESE 5.8 mph - N/A   Scattered Clouds
11:53 PM 66.9 °F - 60.1 °F 79% 29.88 in 10.0 mi West 13.8 mph - 0.00 in Rain , Thunderstorm Light Rain